| time (UTC) | temp F | wind direction | speed MPH | gust MPH | rain 1hr in | rain 24hr in | rain mn in | humidity % | barometer mb |
| 20260505073026 | 54 | 287 | 0.0 | 1.0 | 0.00 | 0.09 | 0.01 | 99 | 1016.5 |
| 20260505071534 | 53 | 287 | 0.0 | 1.0 | 0.00 | 0.09 | 0.01 | 100 | 1016.7 |
| 20260505070023 | 53 | 287 | 0.0 | 2.0 | 0.00 | 0.09 | 0.01 | 100 | 1016.7 |
| 20260505064523 | 52 | 286 | 0.0 | 1.0 | 0.00 | 0.09 | 0.01 | 100 | 1016.6 |
| 20260505063030 | 52 | 286 | 0.0 | 0.0 | 0.00 | 0.09 | 0.01 | 99 | 1016.7 |
| 20260505061524 | 51 | 287 | 0.0 | 0.0 | 0.00 | 0.09 | 0.01 | 100 | 1016.6 |
| 20260505060019 | 50 | 286 | 0.0 | 1.0 | 0.00 | 0.09 | 0.01 | 100 | 1016.5 |
| 20260505054516 | 49 | 286 | 0.0 | 0.0 | 0.00 | 0.09 | 0.01 | 99 | 1016.7 |
| 20260505053017 | 49 | 286 | 0.0 | 0.0 | 0.00 | 0.09 | 0.01 | 100 | 1016.5 |
| 20260505051532 | 49 | 287 | 0.0 | 2.0 | 0.00 | 0.09 | 0.01 | 99 | 1016.4 |
| 20260505041513 | 49 | 278 | 0.0 | 1.0 | 0.00 | 0.09 | 0.01 | 99 | 1016.7 |
| 20260505040014 | 49 | 278 | 0.0 | 1.0 | 0.00 | 0.09 | 0.01 | 99 | 1016.6 |
| 20260505034511 | 49 | 278 | 0.0 | 1.0 | 0.01 | 0.09 | 0.01 | 99 | 1016.5 |
| 20260505033010 | 50 | 278 | 0.0 | 2.0 | 0.01 | 0.09 | 0.01 | 99 | 1016.4 |
| 20260505031522 | 49 | 278 | 0.0 | 2.0 | 0.01 | 0.09 | 0.01 | 99 | 1016.4 |
| 20260505030008 | 49 | 278 | 0.0 | 2.0 | 0.01 | 0.09 | 0.01 | 99 | 1016.5 |
| 20260505024506 | 49 | 278 | 0.0 | 1.0 | 0.00 | 0.08 | 0.00 | 99 | 1016.5 |
| 20260505023006 | 49 | 278 | 0.0 | 2.0 | 0.00 | 0.08 | 0.00 | 99 | 1016.5 |
| 20260505021506 | 49 | 278 | 0.0 | 0.0 | 0.00 | 0.08 | 0.00 | 99 | 1016.5 |
| 20260505020005 | 49 | 278 | 0.0 | 0.0 | 0.00 | 0.08 | 0.00 | 99 | 1016.4 |
| 20260505014509 | 49 | 278 | 0.0 | 0.0 | 0.00 | 0.08 | 0.00 | 99 | 1016.4 |
| 20260505013003 | 50 | 278 | 0.0 | 0.0 | 0.00 | 0.08 | 0.00 | 99 | 1016.4 |
| 20260505011601 | 50 | 278 | 0.0 | 0.0 | 0.00 | 0.08 | 0.00 | 99 | 1016.6 |
| 20260505010113 | 50 | 278 | 0.0 | 0.0 | 0.00 | 0.08 | 0.00 | 99 | 1016.6 |
| 20260505004557 | 51 | 278 | 0.0 | 1.0 | 0.00 | 0.08 | 0.00 | 99 | 1016.7 |
| 20260505003100 | 51 | 278 | 0.0 | 1.0 | 0.00 | 0.08 | 0.00 | 99 | 1016.5 |
| 20260505001554 | 51 | 278 | 0.0 | 0.0 | 0.00 | 0.08 | 0.00 | 99 | 1016.6 |
| 20260505000059 | 52 | 278 | 0.0 | 1.0 | 0.00 | 0.08 | 0.00 | 99 | 1016.7 |
| 20260504234552 | 52 | 278 | 0.0 | 1.0 | 0.00 | 0.08 | 0.00 | 99 | 1016.5 |
| 20260504233054 | 52 | 278 | 0.0 | 2.0 | 0.00 | 0.08 | 0.00 | 99 | 1016.6 |
| 20260504231548 | 52 | 278 | 1.0 | 2.0 | 0.00 | 0.08 | 0.00 | 99 | 1016.6 |
| 20260504230107 | 53 | 277 | 0.0 | 3.0 | 0.00 | 0.08 | 0.00 | 99 | 1016.5 |
| 20260504224559 | 53 | 257 | 1.0 | 4.0 | 0.00 | 0.08 | 0.00 | 99 | 1016.5 |
| 20260504223044 | 53 | 265 | 1.0 | 4.0 | 0.00 | 0.08 | 0.00 | 99 | 1016.4 |
| 20260504221542 | 54 | 269 | 0.0 | 3.0 | 0.00 | 0.08 | 0.00 | 99 | 1016.3 |
| 20260504220050 | 54 | 269 | 0.0 | 2.0 | 0.00 | 0.08 | 0.00 | 99 | 1016.4 |
| 20260504214543 | 54 | 269 | 0.0 | 0.0 | 0.00 | 0.08 | 0.08 | 99 | 1016.3 |
| 20260504213035 | 55 | 269 | 0.0 | 0.0 | 0.01 | 0.08 | 0.08 | 99 | 1016.3 |
| 20260504211536 | 55 | 269 | 0.0 | 0.0 | 0.03 | 0.08 | 0.08 | 99 | 1016.4 |
| 20260504210040 | 55 | 269 | 0.0 | 1.0 | 0.05 | 0.08 | 0.08 | 99 | 1016.4 |
| 20260504204532 | 55 | 269 | 0.0 | 2.0 | 0.06 | 0.08 | 0.08 | 99 | 1016.7 |
| 20260504203034 | 55 | 290 | 0.0 | 2.0 | 0.06 | 0.07 | 0.07 | 98 | 1016.6 |
| 20260504201530 | 56 | 283 | 1.0 | 6.0 | 0.04 | 0.05 | 0.05 | 97 | 1017.0 |
| 20260504200033 | 59 | 186 | 3.0 | 11.0 | 0.02 | 0.03 | 0.03 | 87 | 1017.0 |
| 20260504194526 | 61 | 294 | 1.0 | 5.0 | 0.02 | 0.02 | 0.02 | 90 | 1016.3 |
| 20260504193026 | 61 | 117 | 0.0 | 5.0 | 0.00 | 0.01 | 0.01 | 89 | 1016.0 |
| 20260504191525 | 61 | 285 | 0.0 | 3.0 | 0.00 | 0.01 | 0.01 | 88 | 1015.8 |
| 20260504190026 | 61 | 301 | 0.0 | 2.0 | 0.00 | 0.01 | 0.01 | 88 | 1015.7 |
| 20260504184533 | 61 | 176 | 1.0 | 4.0 | 0.00 | 0.01 | 0.01 | 88 | 1015.7 |
| 20260504183031 | 62 | 139 | 0.0 | 3.0 | 0.00 | 0.01 | 0.01 | 88 | 1015.5 |
| 20260504181523 | 62 | 200 | 0.0 | 4.0 | 0.00 | 0.01 | 0.01 | 86 | 1015.2 |
| 20260504180025 | 62 | 150 | 1.0 | 3.0 | 0.00 | 0.01 | 0.01 | 85 | 1015.0 |
| 20260504174522 | 63 | 131 | 0.0 | 2.0 | 0.00 | 0.01 | 0.01 | 83 | 1015.0 |
| 20260504173020 | 63 | 124 | 2.0 | 4.0 | 0.00 | 0.01 | 0.01 | 82 | 1015.1 |
| 20260504171520 | 64 | 145 | 2.0 | 6.0 | 0.00 | 0.01 | 0.01 | 81 | 1015.2 |
| 20260504081505 | 66 | 276 | 1.0 | 6.0 | 0.00 | 0.00 | 0.00 | 73 | 1017.1 |